Home   Weather   Bangor   Past weeks

Flag for United Kingdom Past Weather in Bangor, Wales, United Kingdom — Yesterday and Last 2 Weeks

Now
34 °F

Chilly.


Feels Like: 34 °F
Forecast: 29 / 43 °F
Wind: 2 mph from East

Location: Capel Curig

Current Time: Jan 22, 2017 at 10:16:46 am

Latest Report: Jan 22, 2017 at 9:00 am


Visibility: 7 mi

Pressure: 30.26 "Hg

Humidity: 85%

Dew Point: 29 °F

Location of BangorLocation

Past Weather in Bangor — Graph

°F

Bangor Temperature Yesterday

Maximum temperature yesterday: 40 °F (at 1:00 pm)
Minimum temperature yesterday: 26 °F (at 12:00 am)
Average temperature yesterday: 34 °F

High & Low Weather Summary for the Past Weeks

 TemperatureHumidityPressure
High51 °F (Jan 11, 3:00 am)100% (Jan 7, 9:00 am)30.68 "Hg (Jan 7, 9:00 am)
Low26 °F (Jan 21, 12:00 am)60% (Jan 20, 4:00 pm)29.50 "Hg (Jan 12, 8:00 pm)
Average42 °F86%30.25 "Hg
* Reported Jan 7 8:00 am — Jan 22 8:00 am, Bangor, Weather by CustomWeather, © 2017

Note: Actual official high and low records may vary slightly from our data, if they occured in-between our weather recording intervals... More about our weather records

Advertising

Bangor Weather History for the Previous 24 Hours

Scroll right to see more
 ConditionsComfort  
Time TempWeatherWind HumidityBarometerVisibility
8:00 am
Sun, Jan 22
34 °FChilly.3 mph84%30.25 "Hg9 mi
7:00 am33 °FChilly.5 mph82%30.24 "Hg9 mi
6:00 am32 °FChilly.2 mph83%30.24 "Hg11 mi
5:00 am31 °FChilly.5 mph82%30.24 "Hg11 mi
4:00 am30 °FChilly.10 mph83%30.23 "Hg10 mi
3:00 am30 °FChilly.9 mph83%30.23 "Hg9 mi
2:00 am29 °FChilly.8 mph82%30.24 "Hg10 mi
1:00 am33 °FChilly.5 mph71%30.24 "Hg17 mi
12:00 am35 °FChilly.7 mph71%30.25 "Hg16 mi
11:00 pm
Sat, Jan 21
35 °FChilly.3 mph88%30.26 "Hg7 mi
10:00 pm35 °FChilly.3 mph85%30.27 "Hg14 mi
9:00 pm35 °FChilly.5 mph84%30.28 "Hg14 mi
8:00 pm35 °FChilly.3 mph87%30.28 "Hg8 mi
7:00 pm35 °FChilly.9 mph88%30.29 "Hg8 mi
6:00 pm35 °FSmoke.3 mph93%30.31 "Hg4 mi
5:00 pm35 °FSmoke.5 mph91%30.31 "Hg6 mi
4:00 pm34 °FChilly.10 mph89%30.32 "Hg9 mi
3:00 pm36 °FChilly.13 mph84%30.31 "Hg7 mi
2:00 pm38 °FChilly.14 mph79%30.32 "Hg9 mi
1:00 pm40 °FQuite cool.7 mph63%30.34 "Hg19 mi
12:00 pm39 °FChilly.8 mph64%30.36 "Hg19 mi
11:00 am36 °FChilly.7 mph67%30.39 "Hg28 mi
10:00 am34 °FChilly.10 mph67%30.39 "Hg31 mi
Weather by CustomWeather, © 2017

See weather overviewHow to use our weather pages